Погода в Томске

Погода в Томске : погода сейчас, прогноз погоды и архив. Всё, что Вы хотите узнать о погоде в Томске!

Хотите узнать прогноз погоды в Томске? Тогда Вам сюда: Погода в Томске

Поиск расширенной информации на нашем сайте:

Другие новости

Новости СМИ2

Главная страница сайта

Новости сайта

03.07.2017

Напоминаем, что на нашем специализированном сайте Метеоцентр.Азия вы можете получить высокодетализированные автоматические прогнозы погоды по пунктам России, СНГ и мира в авиационном формате (включающие направление и скорость ветра, видимость, явления погоды, количество и форму облачности, нижнюю и верхнюю границу облачности).


Погода в Томске - сегодня

Время (UTC), дата Ветер
(°,м/с) 
Видим.   Явления Облачность Т
(°С)
Тd
(°С)
f(%) Тe
(°С)
Pmin
(гПа)
dP
(гПа)
Po
(мм)
O2
(г/м3)
Тmin Tmax R s Состояние
почвы
00 18.07.17 030 (СВ) 20000 м    ясно 
+15.2 +10.1 72 +18  1008.9  -0.8  744  282  +13.6        сухая 
03 18.07.17 тихо ()   20000 м    9/0 верхняя 
[Ci sp]
+20.2 +12.9 63 +26  1008.5  -0.1  744  277           
06 18.07.17 120 (ЮВ) 20000 м    10/1 1500 м средняя, верхняя 
[Sc|Ac cast|Ci sp]
+21.9 +13.2 58 +28  1008.2  -0.3  744  275           
09 18.07.17 тихо ()   20000 м  {гроза}  10/8 1500 м средняя 
[Sc|Ac As]
+21 +12.1 57 +25  1008  -0.2  744  276           
12 18.07.17 тихо ()   20000 м  слаб. ливневой дождь{гроза}  10/5 600 м кучево-дожд., средняя, верхняя 
[Cb cap|Ac cast|Ci fib]
+18.3 +14.2 77 +26  1007.8  -0.3  744  278    +23.5  0.0     
15 18.07.17 тихо ()   20000 м  {ливн. осадки}  10/3 600 м кучево-дожд., средняя, верхняя 
[Cb cap|Ac trans|Ci fib]
+15.6 +14.6 94 +24  1007.8  -0.2  744  280           
18 18.07.17 010 (С) 20000 м  {ливн. осадки}  10/1 600 м кучево-дожд., средняя 
[Cb cap|Ac trans]
+14.7 +13.8 94 +23  1007.5  -0.3  743  281           
21 18.07.17 050 (СВ) 20000 м    9/3 600 м средняя, верхняя 
[Sc|Ac trans|Ci fib]
+13.6 +12.4 92 +20  1006.8  -0.8  743  283           
00 19.07.17 040 (СВ) 20000 м    4/0 средняя, верхняя 
[Ac trans|Cc]
+14 +12.3 89 +20  1006.4  -0.3  743  282  +13.2      влажная 
03 19.07.17 090 (В) 20000 м    8/4 600 м 
[Sc diur, vesp]
+18.9 +13.7 72 +27  1005.8  -0.3  742  277           
06 19.07.17 тихо ()   20000 м    8/5 600 м кучево-дожд. 
[Cb cap]
+20 +12.7 63 +25  1005.4  -0.4  742  276           
09 19.07.17 тихо ()   20000 м    8/4 600 м кучево-дожд., средняя 
[Cb cap|As op]
+18.9 +13 69 +25  1004.9  -0.5  742  277           
12 19.07.17 300 (СЗ) 20000 м  гроза без осадков  8/6 600 м кучево-дожд., средняя 
[Cb cap|As op]
+18.6 +13.8 74 +27  1004.9  -0.1  742  277    +22.3       
15 19.07.17 тихо ()   20000 м  {гроза}  8/4 600 м кучево-дожд., средняя 
[Cb cap|As op]
+16.4 +15.1 92 +26  1005.8  0.8  742  279           
18 19.07.17 тихо ()   20000 м  {гроза}  8/0 средняя 
[As op]
+14.7 +13.8 94 +22  1006.1  0.2  742  281           
21 19.07.17 тихо ()   20000 м    10/0 средняя 
[As op]
+14.9 +13.9 94 +22  1006.1  742  281           
00 20.07.17 тихо ()   20000 м    8/0 средняя 
[As op]
+15.5 +14.3 93 +23  1006.8  0.8  743  280  +14.4        влажная 
03 20.07.17 230 (ЮЗ) 20000 м  в посл. час ливневой дождь  9/9 720 м кучево-дожд. 
[Cb cap]
+16.7 +15 90 +27  1007.7  0.9  744  279           
06 20.07.17 160 (Ю) н/о    н/о 
+21 +15.9 73 +32  1007.4  0.1  743  275           
09 20.07.17 360 (С) 20000 м  в посл. час гроза{ливн. осадки}  10/5 1500 м верхняя 
[Cu med, cong|Ci ing]
+20 +12.9 64 +25  1007.9  0.5  744  277           
12 20.07.17 070 (В) 20000 м  {гроза, ливн. осадки}  9/9 1350 м верхняя 
[Cu med, cong|Ci fib]
+20.8 +14.8 69 +29  1008.3  0.4  744  276    +23.1  0.0     
15 20.07.17 тихо ()   20000 м    10/0 средняя, верхняя 
[Ac lent|Ci fib]
+16.1 +14.8 92 +25  1009.3  0.7  745  280           
18 20.07.17 тихо ()   4000 м  дымка  10/0 верхняя 
[Ci fib]
+14.6 +13.8 95 +21  1010.2  0.7  745  282           
21 20.07.17 тихо ()   20000 м    10/0 верхняя 
[Ci fib]
+12.7 +11.9 95 +17  1010.3  745  285           
00 21.07.17 тихо ()   4000 м  дымка  ясно 
+13.2 +12.4 95 +18  1011.1  0.8  746  284  +11.9        сухая 
Время (UTC), дата Ветер
(°,м/с) 
Видим.   Явления Облачность Т
(°С)
Тd
(°С)
f(%) Тe
(°С)
Pmin
(гПа)
dP
(гПа)
Po
(мм)
O2
(г/м3)
Тmin Tmax R s Состояние
почвы

Для получения пояснительной информации подведите курсор к названию столбца.

ПОГОДА в Томске - архив

Всё, что Вы хотите узнать о погоде в Томске - удобно и подробно!

Выберите нужную дату (начиная с 1 января 2015* года) и нажмите кнопку "Найти".
Будут отображены архивные сводки погоды по пункту Томск, начиная с указанной даты.


Отображать данные в формате CSV (для использования в таблицах Excel)


Внимание! Наш архив погоды предназначен исключительно для личного некоммерческого использования в познавательных целях. Если Вам необходимы официальные справки о состоянии погоды (для производственных, юридических, коммерческих и т.п. целей), обращайтесь в органы Росгидромета.

*Примечание: данная дата относится к архиву по метеостанциям СССР (Россия, СНГ, Балтия).
Архив по метеостанциям Зарубежной Европы и Азии (кроме Китая) хранится 10 дней, по другим регионам земного шара (Китай, Африка, Америка, Австралия, Океания) - 1 день.

Томск - район местоположения метеостанции


Название, широта, долгота, высота метеостанции:
Томск 56.5°ш. 84.9°д. 139 м над ур. моря [Российская Федерация]

Дополнительная информация

В oтличие oт бoльшинства пoгoдных сайтoв мы публикуем пoдрoбную метеoинфoрмацию в детальнoм прoфессиoнальнoм фoрмате.

Характеристики температуры и влажнoсти вoздуха измеряются на высoте 2 м в тени вдали oт зданий и деревьев.
Скoрoсть ветра измеряется на высoте 10 м (на урoвне рoста челoвека скoрoсть ветра ниже в 1.5-2 раза). Если метеoстанция нахoдится в гoрoде или в лесу, тo скoрoсть ветра занижена на 2-4 м/с пo сравнению с oткрытым местoм. Скoрoсть ветра над акватoриями крупных рек и oзёр, а также на вершинах хoлмoв на 2-5 м/с выше, чем в oбычных услoвиях.
Атмoсфернoе давление в разных тoчках местнoсти мoжет значительнo oтличаться oт давления на метеoстанции, в зависимoсти oт услoвий рельефа (при пoдъёме на 10 м давление пoнижается примернo на 1 мм рт.ст.).